This demonstration page uses our WeatherBlox Daily Observations layout. Learn more.

Left ArrowRight Arrow

36.17497, -115.13722

Hourly Observations for March 28, 2019

Temp ( °F °C ) Dew Point ( °F °C ) Humidity (%) Winds ( mph kmh ) Pressure ( in mb ) Visibility ( mi km ) Precip ( " mm )
12:53 am 00:53 Clear 66 18.9 36 2.2 33 33 SW 21 33 29.98 1015 10 16 0.00 0.00
1:53 am 01:53 Clear 64 17.8 36 2.2 35 35 SW 20 31 29.97 1015 10 16 0.00 0.00
2:53 am 02:53 Clear 63 17.2 35 1.7 35 35 SW 23 37 29.97 1015 10 16 0.00 0.00
3:53 am 03:53 Clear 62 16.7 34 1.1 35 35 SW 23 37 29.96 1014 10 16 0.00 0.00
4:53 am 04:53 Clear 62 16.7 30 -1.1 30 30 SW 23 37 29.96 1015 10 16 0.00 0.00
5:53 am 05:53 Clear 59 15 36 2.2 42 42 ESE 17 28 30.01 1016 10 16 0.00 0.00
6:53 am 06:53 Sunny 58 14.4 35 1.7 42 42 W 8 13 30.02 1017 10 16 0.00 0.00
7:53 am 07:53 Sunny 59 15 37 2.8 44 44 Calm 30.05 1018 10 16 0.00 0.00
8:53 am 08:53 Sunny 60 15.6 38 3.3 44 44 WNW 5 7 30.06 1018 10 16 0.00 0.00
9:53 am 09:53 Sunny 62 16.7 36 2.2 38 38 WSW 5 7 30.07 1018 10 16 0.00 0.00
10:53 am 10:53 Sunny 65 18.3 31 -0.6 28 28 VRB 6 9 30.06 1018 10 16 0.00 0.00
11:53 am 11:53 Sunny 66 18.9 31 -0.6 27 27 S 13 20 30.05 1018 10 16 0.00 0.00
12:53 pm 12:53 Sunny 69 20.6 25 -3.9 19 19 S 10 17 30.03 1017 10 16 0.00 0.00
1:53 pm 13:53 Sunny 71 21.7 28 -2.2 20 20 S 9 15 30.00 1016 10 16 0.00 0.00
2:53 pm 14:53 Sunny 75 23.9 21 -6.1 13 13 SSW 21 33 29.96 1015 10 16 0.00 0.00
3:53 pm 15:53 Sunny 74 23.3 21 -6.1 14 14 SW 25 41 29.93 1013 10 16 0.00 0.00
4:53 pm 16:53 Sunny 73 22.8 28 -2.2 19 19 WSW 23 37 29.93 1014 10 16 0.00 0.00
5:53 pm 17:53 Sunny 73 22.8 23 -5 15 15 W 17 28 29.94 1014 10 16 0.00 0.00
6:53 pm 18:53 Sunny 70 21.1 27 -2.8 20 20 W 16 26 29.96 1015 10 16 0.00 0.00
7:53 pm 19:53 Clear 68 20 26 -3.3 21 21 W 15 24 29.97 1015 10 16 0.00 0.00
8:53 pm 20:53 Clear 66 18.9 27 -2.8 23 23 SW 12 19 29.99 1016 10 16 0.00 0.00
9:53 pm 21:53 Clear 64 17.8 24 -4.4 22 22 SW 14 22 29.99 1016 10 16 0.00 0.00
10:53 pm 22:53 Clear 64 17.8 24 -4.4 22 22 VRB 6 9 30.00 1016 10 16 0.00 0.00
11:53 pm 23:53 Clear 62 16.7 21 -6.1 21 21 SW 14 22 30.01 1016 10 16 0.00 0.00

Powered by AerisWeather